Simultaneous Nadir Overpasses (SNOs) Predictions

Prediction of SNOs between AQUA and METOP-B Satellite Orbit:

Table of predicted SNOs for the next 14.0 days since TLE Epoch: 1/18/2013
Index Date (AQUA) Time (AQUA) Lat,Lon (AQUA) SZA (AQUA ) Date (METOP-B) Time (METOP-B) Lat,Lon (METOP-B) SZA (METOP-B ) Distance(km) Time Diff (sec)
1 01/19/2013 11:42:23 73.73, -1.23 94.04 01/19/2013 11:42:00 73.74, -1.22 94.05 0.82 23
2 01/19/2013 12:31:50 -73.81, 166.24 85.89 01/19/2013 12:32:40 -73.81, 166.27 85.89 1.04 50
3 01/22/2013 06:27:02 -73.41,-101.72 86.92 01/22/2013 06:25:52 -73.35,-103.04 86.91 42.58 70
4 01/22/2013 07:16:36 73.75, 65.18 93.44 01/22/2013 07:16:24 73.76, 65.24 93.46 2.16 12
5 01/22/2013 08:06:03 -73.82,-127.33 86.49 01/22/2013 08:07:04 -73.83,-127.27 86.49 2.07 61
6 01/25/2013 02:01:19 -73.67, -35.84 87.30 01/25/2013 02:00:09 -73.66, -35.93 87.30 3.24 70
7 01/25/2013 02:50:48 73.76, 131.61 92.79 01/25/2013 02:50:47 73.77, 131.67 92.80 2.47 1
8 01/25/2013 03:40:15 -73.83, -60.90 87.15 01/25/2013 03:41:27 -73.84, -60.84 87.15 2.12 72
9 01/27/2013 21:35:33 -73.72, 30.50 87.95 01/27/2013 21:34:32 -73.71, 30.60 87.96 3.40 61
10 01/27/2013 22:25:01 73.76,-161.95 92.08 01/27/2013 22:25:11 73.78,-161.92 92.09 1.73 10
11 01/27/2013 23:14:35 -74.19, 4.74 87.47 01/27/2013 23:15:44 -74.18, 6.41 87.55 50.82 69
12 01/30/2013 17:09:46 -73.72, 96.96 88.72 01/30/2013 17:08:56 -73.70, 96.98 88.72 2.13 50
13 01/30/2013 17:59:14 73.76, -95.49 91.33 01/30/2013 17:59:35 73.77, -95.52 91.33 1.23 21




NCC Satellite Simultaneous Nadir Overpasses (SNOs) Prediction Service
